Temperature
13 13 13 13 13 13 13 13 13 13 14 14 14 14 14 14 14 14 14 14 14 14 14 14 14 14 14 14 14 14 14 14 14 14 14 13 13 13 13 13 13 13 13
12 12 13 13 13 13 13 13 13 13 13 13 13 13 13 13 13 13 13 13 14 14 14 14 14 14 14 14 14 14 14 14 14 14 14 13 13 13 13 13 13 13 12
12 12 12 12 12 12 12 13 13 13 13 13 13 13 13 13 13 13 13 13 13 13 14 14 14 14 14 14 13 13 13 13 13 13 13 13 13 13 13 13 13 13 12
11 12 12 12 12 12 12 12 12 12 13 13 13 13 13 13 13 13 13 13 13 13 13 13 13 13 13 13 13 13 13 13 13 13 13 13 13 13 13 13 13 12 12
11 11 11 11 11 11 11 11 12 12 12 12 13 13 13 13 13 13 13 13 13 13 13 13 13 13 13 13 13 13 13 13 13 13 13 13 13 13 13 13 13 12 12
10 10 11 11 11 11 11 11 11 12 12 12 12 12 12 12 13 13 12 12 12 12 13 13 13 13 13 13 13 13 13 13 13 13 13 13 13 13 13 13 12 12 12
10 10 10 10 10 10 10 11 11 11 11 11 11 12 12 12 12 12 12 12 12 12 12 12 13 13 13 13 13 13 12 12 13 13 12 12 12 12 12 12 12 12 12
9 9 9 10 10 10 10 10 10 10 10 11 11 11 11 11 12 12 12 12 12 12 12 12 12 12 12 12 12 12 12 12 12 12 12 12 12 12 12 12 12 12 12
9 9 9 9 9 9 9 9 9 10 10 10 10 10 10 11 11 11 11 12 12 12 12 12 12 12 12 12 12 12 12 12 12 12 12 12 12 12 12 12 11 11 11
8 8 8 8 9 9 9 9 9 9 9 9 9 10 10 10 10 10 11 11 11 11 11 11 11 11 11 11 11 12 12 11 12 12 11 11 11 11 11 11 11 11 11
7 8 8 8 8 8 8 9 9 8 9 9 9 9 9 9 10 9 9 10 10 11 11 11 11 11 11 11 11 11 11 11 11 11 11 11 11 11 11 11 11 11 11
7 7 7 7 8 8 8 8 8 8 8 8 8 8 8 8 9 9 9 9 9 10 10 10 10 10 10 10 10 10 10 10 11 11 10 10 11 11 10 11 11 11 11
6 7 7 7 7 7 7 7 8 8 8 8 8 8 8 8 8 8 8 8 9 9 9 9 10 10 10 10 10 10 10 10 10 10 10 10 10 10 10 10 10 10 10
6 6 6 6 7 7 7 7 7 7 7 7 7 8 8 8 8 8 8 8 8 8 8 9 9 9 9 9 9 9 9 9 9 9 9 9 9 10 10 10 10 10 10
6 6 6 6 6 6 6 6 6 6 6 7 7 7 7 7 7 7 7 7 7 7 7 7 8 8 8 8 8 8 9 9 9 9 9 9 9 9 9 9 9 9 9
5 5 5 5 5 5 5 6 6 6 6 6 6 6 6 6 6 6 6 7 6 6 6 7 7 7 8 8 8 8 8 8 8 8 8 8 8 8 8 9 9 9 9
4 4 4 4 5 5 5 5 5 5 5 5 5 5 5 5 6 6 6 6 6 6 6 6 6 7 7 7 7 7 7 7 7 8 8 8 8 8 8 8 8 8 8
4 4 4 4 4 4 4 4 4 4 4 4 4 4 4 5 5 5 5 5 5 5 5 6 6 6 6 6 6 7 7 7 7 7 7 7 7 7 7 7 7 7 7
3 3 3 3 3 3 4 4 4 4 4 4 4 4 4 4 4 4 4 5 5 5 5 5 5 5 5 5 5 6 6 6 6 6 6 6 6 6 6 6 7 7 7
3 3 3 3 3 3 3 3 3 3 3 3 3 3 3 3 4 4 4 4 4 4 4 4 4 4 4 4 4 5 5 5 5 5 6 6 5 6 6 6 6 6 6
3 2 2 2 2 2 2 2 3 3 3 3 3 3 3 3 3 3 3 3 3 3 3 3 3 4 4 3 3 3 4 4 5 5 5 5 5 5 5 5 5 5 5
2 2 2 2 2 2 2 2 2 2 2 2 2 2 2 2 2 2 3 3 3 3 3 3 3 3 3 2 2 2 2 2 3 3 3 4 4 4 4 4 4 4 4
2 2 2 2 2 2 2 2 2 2 2 2 2 2 2 2 2 2 2 2 2 2 2 2 2 2 2 2 1 1 1 1 1 2 2 2 3 3 3 3 3 3 3
1 1 1 1 1 1 1 1 1 1 1 1 1 1 1 1 1 1 1 2 2 2 2 1 1 1 1 1 1 1 0 1 1 1 1 1 2 2 2 3 3 3 3
1 1 1 1 1 1 1 1 1 1 1 1 1 1 1 1 1 1 1 1 1 1 1 1 1 1 1 1 0 0 -0 -0 -0 0 0 -0 0 0 1 2 2 2 2
1 1 1 1 1 1 0 0 0 0 0 0 0 1 1 1 1 1 0 1 1 1 1 0 0 0 0 0 -0 -0 -1 -1 -1 -2 -1 -1 -1 -2 -1 0 1 1 1
Wind_Speed
3 3 2 2 3 3 3 4 6 7 8 8 9 9 9 9 9 8 9 15 16 15 14 14 13 13 13 12 12 11 10 9 9 8 7 6 5 5 5 5 5 5 5
3 3 3 3 3 3 4 4 5 5 5 5 7 8 8 8 8 7 8 12 15 16 16 15 15 14 14 13 13 12 11 11 10 9 8 7 6 6 6 5 5 5 6
5 4 3 3 4 4 4 4 5 4 4 5 6 6 6 7 7 8 8 9 12 15 16 16 15 15 15 14 14 14 13 12 12 11 10 10 9 8 7 7 7 7 6
5 4 3 3 4 4 3 3 3 3 4 4 5 5 5 5 6 7 8 9 10 11 13 16 16 15 15 15 15 15 14 14 13 13 12 12 11 10 10 10 9 9 8
6 4 3 3 4 3 3 4 3 3 4 4 5 4 4 4 5 5 6 7 8 10 11 13 16 16 15 15 15 15 15 15 14 14 14 14 13 13 12 12 11 11 11
7 5 4 4 3 3 3 3 4 4 3 4 5 4 4 4 4 5 5 5 6 9 10 10 11 13 15 15 15 15 15 15 15 15 15 15 15 15 14 14 13 13 13
7 5 4 4 3 3 3 4 3 4 3 2 2 3 4 4 5 4 5 5 5 7 8 9 9 10 11 15 15 15 15 14 14 15 15 15 16 16 16 15 15 14 14
7 5 4 3 3 3 3 3 3 3 3 2 2 2 3 3 4 5 5 5 6 4 6 8 8 9 9 10 12 15 15 15 15 15 14 14 14 15 17 17 16 15 15
6 5 5 4 4 3 3 3 4 4 3 3 3 2 2 3 2 3 5 5 5 5 5 5 7 9 9 9 10 14 16 15 16 16 16 15 15 15 16 16 17 16 16
6 5 4 4 4 3 3 4 4 3 3 4 3 3 3 2 2 2 3 4 5 6 6 5 5 7 8 8 9 11 14 15 16 16 17 17 16 16 16 16 16 16 16
4 4 4 4 4 3 3 3 4 4 4 4 4 3 4 3 3 3 4 3 3 4 5 6 5 5 8 8 8 9 11 14 16 16 17 17 17 17 16 16 15 16 17
4 4 3 3 4 3 3 4 4 4 4 4 4 4 3 3 3 3 4 4 4 4 5 5 5 5 6 7 8 10 11 13 14 15 16 17 17 17 17 16 17 15 16
4 4 3 3 3 4 4 4 4 4 4 4 4 4 3 4 3 3 4 4 4 3 3 3 4 3 4 5 6 9 11 12 13 14 15 16 16 16 16 16 16 16 15
4 4 4 3 4 4 5 4 4 4 4 4 4 4 4 3 3 3 3 3 4 3 3 4 2 2 2 4 5 7 7 10 11 13 14 15 15 14 14 15 15 15 15
4 4 4 4 4 4 4 4 4 4 3 4 4 4 4 3 3 3 3 3 4 5 5 3 2 1 1 3 5 5 5 8 10 11 12 13 14 13 13 13 13 13 13
5 4 4 4 5 4 4 4 4 4 4 3 3 3 4 3 3 3 3 3 3 5 6 3 2 1 2 3 4 4 5 7 8 9 10 11 12 12 12 13 14 13 13
5 4 4 4 4 4 4 4 4 4 4 3 4 4 4 4 3 3 3 3 4 4 6 4 2 2 3 3 3 4 5 5 6 8 9 10 11 12 13 13 14 14 14
4 4 4 4 4 4 4 4 4 4 3 3 4 4 4 3 4 3 3 4 4 4 5 5 3 2 3 3 3 3 3 5 5 8 9 11 11 11 12 13 14 14 15
4 4 4 4 4 4 4 4 4 3 3 3 3 4 4 3 4 3 3 3 3 4 4 4 4 2 2 2 3 3 3 3 5 7 8 9 10 10 12 13 13 14 14
4 4 4 4 4 4 3 3 3 3 3 3 3 3 3 3 3 4 3 4 3 4 4 4 3 3 2 3 2 3 4 3 5 6 6 7 9 11 12 13 13 13 14
3 3 4 4 3 3 3 3 3 3 2 3 3 3 3 3 4 4 3 3 3 3 3 4 4 3 3 2 3 2 4 5 5 3 3 5 6 6 8 10 11 12 12
3 3 3 3 3 3 4 4 3 3 3 3 3 3 3 3 4 5 5 4 4 4 4 4 4 4 4 4 3 4 4 4 4 2 4 7 5 6 6 7 11 13 13
3 3 3 3 3 3 4 4 4 2 3 3 3 3 3 3 3 3 4 5 5 5 5 5 5 5 5 5 4 5 5 6 6 5 5 6 5 6 6 9 13 14 13
3 3 3 3 2 3 4 4 3 2 2 2 2 3 3 3 3 3 3 3 3 4 4 4 4 4 4 4 5 5 6 6 6 4 3 5 5 5 7 7 12 12 13
3 3 2 2 3 3 3 3 3 1 1 2 2 2 2 2 4 4 3 3 4 3 3 4 5 5 6 6 5 3 3 4 5 4 2 3 4 5 6 6 7 10 12
3 2 2 2 2 2 2 3 3 1 1 2 2 2 3 3 5 5 3 3 4 4 3 3 3 3 3 4 5 3 3 4 5 4 2 2 4 4 5 4 4 6 9
Wind_Direction
304 302 286 266 248 239 230 228 221 221 222 224 221 216 216 223 223 210 193 190 192 199 207 211 215 218 218 219 220 220 220 219 222 221 223 226 235 246 255 261 265 271 280
323 308 293 288 278 263 248 245 236 232 227 224 225 221 216 220 221 213 194 196 199 202 209 215 219 220 221 222 221 219 219 220 221 221 223 226 233 243 254 263 270 272 276
322 312 297 288 295 290 273 263 254 251 237 232 230 227 219 216 215 215 203 199 203 208 211 216 221 222 223 224 224 224 222 223 223 224 227 229 232 238 248 256 262 268 274
318 312 293 289 306 306 292 262 250 253 248 240 237 230 224 216 216 215 209 201 199 203 212 217 217 221 224 227 228 227 226 225 225 226 228 231 235 240 245 253 258 261 265
319 314 294 291 299 297 283 277 267 250 247 247 244 236 229 219 215 218 210 203 200 199 202 212 214 217 222 227 231 231 230 227 226 229 231 233 236 241 245 249 254 256 259
320 317 307 296 295 275 278 278 274 268 249 245 255 249 242 234 219 214 216 211 207 203 200 201 207 216 221 226 232 235 234 232 230 231 234 236 238 241 246 248 251 255 256
323 319 307 302 292 270 268 274 268 271 263 253 253 257 257 247 235 221 215 213 211 209 203 202 202 207 215 224 230 235 238 237 237 236 236 238 241 243 245 248 251 253 255
324 313 306 295 290 279 273 274 273 268 270 262 230 239 247 249 245 233 218 216 216 211 210 209 209 210 211 214 223 230 235 239 240 242 242 243 244 248 249 249 250 252 254
319 316 312 303 290 276 264 269 266 251 258 263 243 217 220 234 259 234 225 221 217 218 217 209 214 217 218 213 213 222 228 234 239 244 246 247 248 250 253 255 252 251 252
322 322 320 314 300 284 273 273 271 260 252 254 258 248 250 240 237 262 252 236 226 225 223 221 218 221 224 224 218 215 221 229 238 245 250 252 252 253 255 258 258 254 254
318 321 321 313 303 293 288 279 276 268 258 249 243 250 257 265 246 244 260 253 250 239 232 227 223 220 222 223 220 221 223 229 239 246 251 255 256 256 258 257 261 259 256
310 312 313 315 310 300 293 289 282 274 266 261 254 247 241 238 236 246 252 249 252 251 244 231 224 218 219 220 226 231 231 231 237 246 252 256 258 259 259 260 261 265 262
309 311 319 314 306 302 298 290 287 283 274 263 257 256 254 250 255 254 255 257 259 263 248 240 229 218 218 219 230 234 237 233 236 243 252 257 261 262 261 261 263 263 267
303 308 313 302 294 298 301 296 282 275 271 261 260 260 257 257 257 254 250 254 268 262 249 247 241 215 220 228 238 240 246 240 242 248 255 260 263 265 262 262 261 264 264
305 309 309 306 300 294 291 289 274 274 277 271 264 263 258 258 255 254 252 241 245 258 255 240 238 242 273 268 254 255 258 254 253 255 258 260 261 263 264 263 262 262 262
311 310 308 308 306 301 295 287 279 270 267 273 265 262 265 261 259 252 248 253 246 251 258 247 259 291 295 304 279 275 268 264 261 260 263 263 263 264 265 267 265 266 264
308 306 301 297 297 301 301 292 284 282 271 271 272 262 259 260 259 260 255 254 253 254 261 269 268 281 287 284 294 286 277 271 269 268 271 272 269 265 265 268 267 266 264
306 298 297 293 292 294 294 293 293 287 281 277 277 274 265 263 262 260 256 254 256 255 256 263 264 265 280 277 276 283 301 298 290 279 277 276 273 272 274 272 270 268 266
306 308 306 301 299 295 290 290 287 281 282 286 288 285 282 269 272 272 267 263 260 265 263 260 268 267 283 299 302 313 308 299 304 290 285 282 281 284 283 280 277 273 268
307 310 306 303 299 297 297 294 285 280 284 290 293 294 294 286 274 269 265 258 256 256 259 258 263 273 279 286 290 297 305 301 299 302 296 297 297 295 290 286 282 278 273
305 306 308 308 305 293 293 285 280 279 279 290 298 296 299 306 305 293 274 264 257 253 256 255 263 276 278 284 281 290 295 304 300 295 311 302 299 295 293 292 292 291 287
297 300 305 311 315 316 309 296 282 280 276 274 278 288 294 300 310 309 308 304 285 262 255 256 261 261 272 277 283 289 293 304 294 300 312 299 297 291 291 294 298 300 298
289 297 301 305 307 313 318 313 287 278 273 267 268 278 287 296 301 295 301 306 306 294 272 258 258 265 273 277 277 277 277 281 283 294 304 287 288 287 292 299 299 299 298
276 284 292 297 305 306 315 319 303 278 278 277 274 272 275 290 295 289 299 297 285 286 277 263 250 259 268 268 258 268 276 285 289 284 285 279 287 288 298 299 297 300 301
275 277 283 292 298 302 311 321 319 297 282 283 282 286 284 282 294 297 293 288 289 296 312 293 279 281 287 295 294 284 286 292 293 289 287 278 291 304 294 283 293 301 306
261 267 278 280 280 290 305 318 317 325 302 293 287 285 288 291 301 300 279 274 278 284 297 304 305 306 305 312 310 279 266 274 288 283 280 301 298 321 303 279 287 303 304
Height
1511 1512 1512 1513 1514 1515 1516 1517 1518 1519 1520 1522 1523 1524 1526 1527 1529 1530 1531 1532 1533 1534 1535 1536 1537 1538 1539 1539 1540 1541 1541 1542 1542 1542 1543 1543 1543 1543 1543 1543 1543 1543 1543
1508 1508 1509 1509 1510 1511 1512 1513 1514 1516 1517 1518 1519 1521 1522 1524 1525 1526 1527 1528 1530 1531 1532 1533 1534 1535 1536 1537 1537 1538 1539 1539 1540 1540 1541 1541 1541 1541 1541 1541 1541 1541 1541
1504 1504 1505 1505 1506 1507 1509 1510 1511 1512 1513 1514 1515 1517 1518 1519 1521 1522 1523 1524 1525 1527 1528 1529 1530 1531 1532 1533 1534 1535 1535 1536 1537 1537 1538 1538 1538 1539 1539 1539 1539 1539 1539
1501 1501 1501 1501 1502 1504 1505 1505 1507 1508 1509 1510 1511 1512 1513 1515 1516 1518 1519 1520 1521 1522 1524 1525 1526 1527 1528 1529 1530 1531 1532 1533 1533 1534 1534 1535 1535 1536 1536 1536 1536 1536 1536
1497 1497 1497 1497 1498 1499 1500 1501 1502 1503 1504 1505 1507 1507 1509 1510 1511 1513 1514 1515 1517 1518 1519 1520 1522 1523 1524 1525 1526 1527 1528 1529 1529 1530 1531 1531 1532 1532 1532 1533 1533 1533 1533
1494 1493 1493 1494 1494 1495 1496 1497 1498 1499 1500 1501 1502 1503 1504 1505 1507 1508 1509 1511 1512 1513 1514 1515 1517 1518 1519 1520 1521 1522 1523 1524 1525 1526 1526 1527 1528 1528 1528 1528 1529 1529 1529
1490 1489 1489 1490 1490 1491 1492 1493 1494 1494 1495 1497 1498 1498 1499 1500 1501 1502 1504 1505 1507 1508 1509 1510 1511 1512 1514 1515 1516 1517 1518 1519 1520 1521 1522 1522 1523 1523 1523 1524 1524 1524 1525
1486 1486 1485 1486 1486 1487 1488 1489 1490 1490 1491 1493 1494 1494 1494 1495 1495 1497 1498 1499 1501 1503 1504 1505 1506 1507 1508 1509 1510 1512 1513 1514 1515 1516 1517 1517 1518 1518 1519 1519 1519 1520 1520
1483 1482 1482 1482 1482 1483 1483 1484 1486 1486 1486 1488 1490 1491 1491 1490 1491 1492 1492 1494 1495 1496 1497 1499 1500 1501 1503 1503 1504 1506 1507 1508 1509 1510 1511 1512 1512 1513 1513 1514 1514 1514 1515
1479 1479 1478 1478 1478 1479 1479 1480 1481 1482 1483 1483 1485 1486 1487 1487 1488 1486 1487 1489 1490 1491 1492 1493 1494 1495 1497 1498 1499 1500 1501 1502 1504 1504 1505 1506 1507 1507 1507 1508 1508 1508 1509
1476 1475 1475 1474 1474 1474 1475 1475 1476 1477 1478 1479 1480 1481 1482 1482 1483 1484 1482 1483 1484 1486 1487 1488 1489 1490 1491 1492 1493 1494 1495 1496 1498 1498 1499 1500 1500 1501 1501 1502 1502 1502 1503
1472 1472 1471 1471 1470 1470 1470 1471 1472 1472 1473 1474 1475 1476 1477 1477 1477 1479 1478 1478 1479 1480 1482 1483 1483 1484 1485 1486 1487 1488 1489 1490 1491 1492 1493 1494 1494 1494 1494 1495 1495 1495 1495
1469 1468 1467 1467 1467 1467 1466 1467 1467 1468 1469 1469 1470 1470 1471 1472 1473 1474 1475 1474 1474 1475 1476 1477 1478 1479 1480 1480 1481 1482 1483 1484 1485 1486 1486 1487 1487 1487 1487 1487 1488 1488 1488
1465 1465 1464 1463 1463 1462 1462 1462 1462 1463 1463 1464 1464 1465 1466 1467 1468 1469 1470 1470 1469 1469 1470 1471 1472 1473 1474 1475 1475 1476 1477 1478 1478 1479 1480 1480 1480 1480 1480 1480 1480 1480 1481
1462 1461 1460 1459 1458 1458 1458 1458 1457 1458 1458 1458 1459 1460 1460 1461 1462 1463 1464 1466 1467 1465 1464 1465 1467 1468 1469 1469 1469 1470 1470 1471 1472 1473 1473 1473 1473 1473 1473 1473 1473 1473 1473
1458 1457 1456 1455 1454 1454 1454 1453 1453 1453 1453 1453 1454 1455 1455 1456 1457 1458 1459 1460 1461 1461 1459 1459 1461 1462 1463 1462 1463 1464 1464 1465 1466 1466 1466 1467 1466 1466 1466 1466 1466 1465 1465
1455 1453 1452 1451 1450 1450 1449 1449 1448 1449 1448 1449 1449 1450 1450 1451 1452 1452 1453 1454 1455 1455 1454 1453 1455 1456 1457 1457 1457 1457 1458 1458 1459 1459 1460 1459 1459 1459 1459 1459 1458 1458 1458
1451 1450 1448 1447 1446 1446 1445 1445 1444 1444 1444 1444 1445 1445 1445 1446 1447 1447 1448 1449 1449 1450 1450 1448 1449 1450 1451 1451 1451 1451 1451 1452 1452 1453 1453 1453 1453 1452 1452 1452 1451 1450 1450
1447 1446 1445 1443 1442 1442 1441 1441 1441 1440 1440 1440 1441 1441 1441 1441 1442 1442 1443 1443 1444 1444 1444 1443 1443 1444 1444 1445 1445 1445 1445 1445 1446 1446 1446 1446 1446 1445 1445 1444 1443 1443 1442
1443 1442 1441 1440 1439 1438 1438 1437 1437 1437 1436 1437 1437 1437 1437 1437 1437 1437 1437 1438 1438 1439 1439 1438 1438 1438 1439 1440 1440 1439 1438 1439 1439 1439 1439 1439 1438 1438 1437 1437 1436 1435 1434
1440 1439 1438 1437 1436 1435 1434 1434 1434 1433 1433 1433 1433 1433 1433 1433 1433 1433 1433 1433 1433 1433 1433 1433 1433 1433 1433 1434 1434 1433 1433 1432 1432 1432 1431 1431 1431 1430 1430 1429 1428 1427 1426
1437 1436 1435 1434 1432 1431 1431 1430 1430 1430 1429 1429 1429 1429 1429 1429 1429 1429 1429 1429 1429 1429 1428 1429 1428 1428 1428 1429 1429 1429 1428 1427 1425 1427 1425 1424 1425 1423 1422 1422 1421 1420 1419
1434 1433 1432 1431 1429 1429 1428 1427 1426 1426 1426 1426 1426 1425 1425 1425 1425 1425 1424 1424 1424 1424 1425 1425 1423 1423 1423 1424 1424 1424 1423 1422 1420 1420 1419 1417 1418 1416 1416 1414 1414 1413 1412
1432 1430 1429 1428 1427 1426 1425 1424 1423 1423 1423 1423 1422 1422 1422 1421 1421 1421 1420 1420 1420 1420 1420 1420 1419 1419 1419 1419 1419 1419 1417 1416 1415 1416 1415 1411 1410 1409 1408 1407 1407 1405 1404
1429 1427 1426 1425 1424 1424 1423 1422 1421 1420 1419 1419 1419 1419 1418 1418 1418 1417 1417 1416 1415 1415 1415 1415 1415 1415 1414 1414 1414 1414 1412 1411 1408 1408 1409 1407 1404 1402 1400 1400 1400 1398 1397
1426 1425 1424 1423 1423 1422 1421 1420 1419 1418 1417 1416 1416 1415 1415 1415 1414 1414 1413 1412 1411 1411 1411 1410 1410 1410 1410 1409 1409 1409 1408 1406 1404 1403 1403 1403 1400 1398 1393 1391 1392 1391 1389